Home   Weather   Hanoi   Past weeks
Flag for Vietnam

Past Weather in Hanoi, Vietnam — July 2018

Now
86 °F

Clear.


Feels Like: 102 °F
Forecast: 95 / 82 °F
Wind: 6 mph from East

Location: Ha Noi Airport

Current Time: Aug 18, 2019 at 11:10:04 pm

Latest Report: Aug 18, 2019 at 10:30 pm


Visibility: 10 mi

Pressure: 29.62 "Hg

Humidity: 84%

Dew Point: 81 °F

Location of HanoiLocation

July 2018 Weather in Hanoi — Graph

°F

High & Low Weather Summary for July 2018

 TemperatureHumidityPressure
High102 °F (Jul 3, 2:30 pm)100% (Jul 7, 5:00 pm)29.71 "Hg (Jul 7, 5:00 pm)
Low75 °F (Jul 21, 4:00 am)42% (Jul 3, 2:30 pm)29.36 "Hg (Jul 3, 5:00 pm)
Average85 °F81%29.55 "Hg
* Reported Jul 1 12:00 am — Jul 31 11:30 pm, Hanoi. Weather by CustomWeather, © 2019

Note: Actual official high and low records may vary slightly from our data, if they occured in-between our weather recording intervals... More about our weather records

Advertising

Hanoi Weather History for July 1, 2018

Scroll right to see more
 ConditionsComfort  
Time TempWeatherWind HumidityBarometerVisibility
12:00 am
Sun, Jul 1
88 °FClear.10 mph70%29.56 "Hg4 mi
12:30 am86 °FClear.7 mph79%29.53 "Hg10 mi
1:00 am84 °FClear.5 mph89%29.53 "Hg10 mi
1:30 am84 °FPassing clouds.5 mph94%29.53 "HgN/A
2:00 am84 °FClear.5 mph94%29.53 "Hg10 mi
2:30 am84 °FClear.6 mph94%29.53 "Hg10 mi
3:00 am84 °FClear.6 mph94%29.53 "Hg10 mi
3:30 am84 °FClear.5 mph94%29.53 "Hg10 mi
4:00 am84 °FClear.5 mph94%29.53 "Hg10 mi
4:30 am82 °FClear.6 mph94%29.53 "Hg10 mi
5:00 am82 °FClear.5 mph94%29.53 "Hg10 mi
5:30 am82 °FSunny.5 mph94%29.53 "Hg10 mi
6:00 am84 °FSunny.3 mph94%29.53 "Hg10 mi
6:30 am86 °FPassing clouds.5 mph89%29.53 "HgN/A
7:00 am86 °FSunny.5 mph89%29.56 "Hg10 mi
7:30 am88 °FPassing clouds.3 mph84%29.56 "HgN/A
8:00 am90 °FPassing clouds.5 mph75%29.56 "HgN/A
8:30 am91 °FSunny.2 mph67%29.56 "Hg10 mi
9:30 am93 °FSunny.2 mph63%29.56 "Hg10 mi
10:30 am95 °FSunny.3 mph60%29.56 "Hg10 mi
11:30 am95 °FPassing clouds.5 mph60%29.56 "HgN/A
12:00 pm95 °FPassing clouds.6 mph56%29.53 "HgN/A
12:30 pm97 °FPassing clouds.7 mph56%29.53 "HgN/A
1:00 pm97 °FPassing clouds.6 mph56%29.53 "HgN/A
1:30 pm99 °FPassing clouds.7 mph53%29.50 "HgN/A
2:00 pm99 °FPassing clouds.7 mph53%29.50 "HgN/A
2:30 pm99 °FPassing clouds.5 mph53%29.50 "HgN/A
3:30 pm99 °FPassing clouds.6 mph50%29.47 "HgN/A
4:00 pm99 °FPassing clouds.9 mph53%29.45 "HgN/A
4:30 pm99 °FPassing clouds.6 mph50%29.45 "HgN/A
5:00 pm99 °FPassing clouds.5 mph50%29.45 "HgN/A
5:30 pm99 °FPassing clouds.5 mph50%29.45 "HgN/A
6:00 pm97 °FPassing clouds.3 mph53%29.45 "HgN/A
6:30 pm95 °FPassing clouds.5 mph60%29.47 "Hg6 mi
7:00 pm93 °FPassing clouds.5 mph63%29.47 "Hg4 mi
7:30 pm93 °FClear.5 mph63%29.47 "Hg4 mi
8:00 pm91 °FHaze.6 mph67%29.47 "Hg3 mi
8:30 pm93 °FClear.8 mph63%29.50 "Hg10 mi
9:00 pm93 °FPassing clouds.8 mph63%29.50 "HgN/A
9:30 pm91 °FPassing clouds.12 mph63%29.50 "HgN/A
10:00 pm90 °FClear.10 mph67%29.53 "Hg10 mi
10:30 pm90 °FClear.8 mph71%29.50 "Hg10 mi
11:00 pm90 °FClear.9 mph71%29.53 "Hg10 mi
11:30 pm88 °FPassing clouds.9 mph75%29.50 "HgN/A
Weather by CustomWeather, © 2019

See weather overview